Time,TemperatureF,DewpointF,PressureIn,WindDirection,WindDirectionDegrees,WindSpeedMPH,WindSpeedGustMPH,Humidity,HourlyPrecipIn,Conditions,Clouds,dailyrainin,SoftwareType,DateUTC
2013-08-26 00:12:00,66.0,55.0,-100.00,ESE,110,7.0,7.0,66,-99.99,,,-99.99,,2013-08-26 06:12:00,
2013-08-26 00:50:00,66.0,56.0,-100.00,ESE,115,5.0,6.0,69,-99.99,,,-99.99,,2013-08-26 06:50:00,
2013-08-26 00:52:00,66.0,55.0,-100.00,ESE,105,6.0,7.0,68,-99.99,,,-99.99,,2013-08-26 06:52:00,
2013-08-26 01:11:00,66.0,56.0,-100.00,ESE,115,6.0,6.0,68,-99.99,,,-99.99,,2013-08-26 07:11:00,
2013-08-26 01:42:00,66.0,56.0,-100.00,ESE,115,5.0,6.0,69,-99.99,,,-99.99,,2013-08-26 07:42:00,
2013-08-26 02:12:00,64.0,56.0,-100.00,ESE,110,5.0,6.0,72,-99.99,,,-99.99,,2013-08-26 08:12:00,
2013-08-26 02:52:00,63.0,56.0,-100.00,ESE,120,5.0,6.0,76,-99.99,,,-99.99,,2013-08-26 08:52:00,
2013-08-26 03:11:00,63.0,56.0,-100.00,ESE,115,5.0,6.0,76,-99.99,,,-99.99,,2013-08-26 09:11:00,
2013-08-26 03:54:00,63.0,56.0,-100.00,ESE,120,5.0,6.0,75,-99.99,,,-99.99,,2013-08-26 09:54:00,
2013-08-26 04:12:00,63.0,56.0,-100.00,SE,125,4.0,4.0,75,-99.99,,,-99.99,,2013-08-26 10:12:00,
2013-08-26 04:52:00,63.0,55.0,-100.00,SE,125,6.0,6.0,75,-99.99,,,-99.99,,2013-08-26 10:52:00,
2013-08-26 05:12:00,63.0,56.0,-100.00,ESE,120,4.0,6.0,77,-99.99,,,-99.99,,2013-08-26 11:12:00,
2013-08-26 05:52:00,65.0,57.0,-100.00,ESE,120,3.0,4.0,75,-99.99,,,-99.99,,2013-08-26 11:52:00,
2013-08-26 06:12:00,64.0,56.0,-100.00,East,100,4.0,6.0,75,-99.99,,,-99.99,,2013-08-26 12:12:00,
2013-08-26 06:52:00,65.0,59.0,-100.00,SE,135,1.0,4.0,78,-99.99,,,-99.99,,2013-08-26 12:52:00,
2013-08-26 07:11:00,65.0,58.0,-100.00,ESE,120,4.0,6.0,76,-99.99,,,-99.99,,2013-08-26 13:11:00,
2013-08-26 07:52:00,67.0,60.0,-100.00,ESE,120,6.0,7.0,76,-99.99,,,-99.99,,2013-08-26 13:52:00,
2013-08-26 08:11:00,68.0,60.0,-100.00,ESE,115,3.0,6.0,75,-99.99,,,-99.99,,2013-08-26 14:11:00,
2013-08-26 08:52:00,74.0,60.0,-100.00,SSE,165,4.0,9.0,61,-99.99,,,-99.99,,2013-08-26 14:52:00,
2013-08-26 09:12:00,75.0,60.0,-100.00,SE,135,4.0,7.0,59,-99.99,,,-99.99,,2013-08-26 15:12:00,
2013-08-26 09:59:00,76.0,60.0,-100.00,ESE,105,6.0,8.0,57,-99.99,,,-99.99,,2013-08-26 15:59:00,
2013-08-26 10:17:00,77.0,60.0,-100.00,SE,125,9.0,11.0,55,-99.99,,,-99.99,,2013-08-26 16:17:00,
2013-08-26 10:59:00,81.0,59.0,-100.00,ESE,115,7.0,9.0,46,-99.99,,,-99.99,,2013-08-26 16:59:00,
2013-08-26 11:12:00,83.0,58.0,-100.00,SSE,150,10.0,12.0,43,-99.99,,,-99.99,,2013-08-26 17:12:00,
2013-08-26 11:53:00,87.0,58.0,-100.00,SSE,160,17.0,22.0,36,-99.99,,,-99.99,,2013-08-26 17:53:00,
2013-08-26 12:12:00,89.0,57.0,-100.00,South,170,18.0,24.0,34,-99.99,,,-99.99,,2013-08-26 18:12:00,
2013-08-26 12:52:00,91.0,56.0,-100.00,South,170,14.0,23.0,30,-99.99,,,-99.99,,2013-08-26 18:52:00,
2013-08-26 13:11:00,90.0,56.0,-100.00,SSE,165,17.0,20.0,30,-99.99,,,-99.99,,2013-08-26 19:11:00,
2013-08-26 13:30:00,92.0,54.0,-100.00,SSW,195,17.0,26.0,27,-99.99,,,-99.99,,2013-08-26 19:30:00,
2013-08-26 13:52:00,92.0,54.0,-100.00,SSW,195,17.0,26.0,27,-99.99,,,-99.99,,2013-08-26 19:52:00,
2013-08-26 14:02:00,92.0,54.0,-100.00,SSW,195,17.0,26.0,27,-99.99,,,-99.99,,2013-08-26 20:02:00,
2013-08-26 14:11:00,92.0,54.0,-100.00,SSW,195,17.0,26.0,27,-99.99,,,-99.99,,2013-08-26 20:11:00,
2013-08-26 14:22:00,92.0,54.0,-100.00,SSW,195,17.0,26.0,27,-99.99,,,-99.99,,2013-08-26 20:22:00,
2013-08-26 15:11:00,92.0,54.0,-100.00,SSW,200,10.0,21.0,28,-99.99,,,-99.99,,2013-08-26 21:11:00,
2013-08-26 15:55:00,92.0,54.0,-100.00,South,185,17.0,24.0,27,-99.99,,,-99.99,,2013-08-26 21:55:00,
2013-08-26 16:16:00,91.0,54.0,-100.00,South,185,13.0,23.0,27,-99.99,,,-99.99,,2013-08-26 22:16:00,
2013-08-26 16:53:00,93.0,54.0,-100.00,South,175,15.0,25.0,26,-99.99,,,-99.99,,2013-08-26 22:53:00,
2013-08-26 17:12:00,92.0,53.0,-100.00,South,175,19.0,24.0,26,-99.99,,,-99.99,,2013-08-26 23:12:00,
2013-08-26 17:52:00,92.0,53.0,-100.00,SSE,160,17.0,22.0,27,-99.99,,,-99.99,,2013-08-26 23:52:00,
2013-08-26 18:11:00,91.0,53.0,-100.00,SSE,155,14.0,21.0,27,-99.99,,,-99.99,,2013-08-27 00:11:00,
2013-08-26 18:52:00,86.0,56.0,-100.00,SE,140,15.0,21.0,35,-99.99,,,-99.99,,2013-08-27 00:52:00,
2013-08-26 19:12:00,86.0,56.0,-100.00,SE,140,14.0,20.0,35,-99.99,,,-99.99,,2013-08-27 01:12:00,
2013-08-26 19:52:00,82.0,54.0,-100.00,SSE,155,12.0,19.0,38,-99.99,,,-99.99,,2013-08-27 01:52:00,
2013-08-26 20:12:00,81.0,54.0,-100.00,SSE,150,10.0,15.0,39,-99.99,,,-99.99,,2013-08-27 02:12:00,
2013-08-26 20:52:00,77.0,54.0,-100.00,South,175,6.0,11.0,44,-99.99,,,-99.99,,2013-08-27 02:52:00,
2013-08-26 21:12:00,77.0,54.0,-100.00,South,175,7.0,8.0,45,-99.99,,,-99.99,,2013-08-27 03:12:00,
2013-08-26 21:58:00,77.0,54.0,-100.00,SSE,150,4.0,8.0,45,-99.99,,,-99.99,,2013-08-27 03:58:00,
2013-08-26 22:18:00,76.0,55.0,-100.00,SSE,155,5.0,9.0,46,-99.99,,,-99.99,,2013-08-27 04:18:00,
2013-08-26 22:54:00,74.0,55.0,-100.00,SE,130,4.0,6.0,50,-99.99,,,-99.99,,2013-08-27 04:54:00,
2013-08-26 23:13:00,74.0,55.0,-100.00,SSE,160,5.0,7.0,50,-99.99,,,-99.99,,2013-08-27 05:13:00,
2013-08-26 23:52:00,74.0,57.0,-100.00,South,185,6.0,7.0,56,-99.99,,,-99.99,,2013-08-27 05:52:00,